Flag for Morocco Weather past 2 weeks in Marrakech, Morocco

Now
68 °F

Mild.


Feels Like: 68 °F
Forecast: 69 / 97 °F
Wind: 6 mph from Southwest

Location: Marrakech Airport

Current Time: Oct 1, 2014 at 5:01:19 AM

Latest Report: Oct 1, 2014 at 4:30 AM


Visibility: N/A

Pressure: 30.01 "Hg

Humidity: 78%

Dew point: 61 °F

Location of MarrakechLocation

Historic Weather in Marrakech — Graph

°F

Marrakech temperature yesterday

Maximum temperature yesterday: 86 °F (at 5:00 PM)
Minimum temperature yesterday: 64 °F (at 6:00 AM)
Average temperature yesterday: 75 °F

Past Weeks' High & Low Weather Summary

 TemperatureHumidityPressure
High90 °F (Sep 16, 4:00 PM)100% (Sep 22, 5:30 AM)30.18 "Hg (Sep 22, 5:30 AM)
Low63 °F (Sep 23, 7:00 AM)29% (Sep 24, 5:30 PM)29.86 "Hg (Sep 16, 6:00 AM)
Average74 °F64%30.04 "Hg
* Reported Sep 16 3:00 AM — Oct 1 3:30 AM, Marrakech, Weather by CustomWeather, © 2014

Note: Actual official high and low records may vary slightly from our data, if they occured in-between our weather recording intervals... More about our weather records

Advertising

Marrakech weather history for previous 24 hours

 ConditionsComfort  
Time TempWeatherWind HumidityBarometerVisibility
3:30 AM
Oct 1
68 °FPassing clouds.3 mph78%30.01 "HgN/A
3:00 AM68 °FPassing clouds.3 mph78%30.01 "HgN/A
2:30 AM70 °FClear.3 mph78%30.01 "Hg10 mi
2:00 AM72 °FClear.2 mph73%30.04 "Hg10 mi
1:30 AM72 °FPassing clouds.3 mph73%30.04 "HgN/A
1:00 AM72 °FPassing clouds.No wind73%30.01 "HgN/A
12:30 AM73 °FPassing clouds.2 mph69%30.04 "HgN/A
12:00 AM73 °FPassing clouds.2 mph69%30.04 "HgN/A
11:30 PM
Sep 30
75 °FPassing clouds.2 mph65%30.04 "HgN/A
11:00 PM75 °FPassing clouds.6 mph65%30.04 "HgN/A
10:30 PM75 °FPassing clouds.5 mph65%30.04 "HgN/A
10:00 PM75 °FPassing clouds.7 mph65%30.04 "HgN/A
9:30 PM77 °FPassing clouds.10 mph61%30.04 "HgN/A
9:00 PM79 °FPassing clouds.9 mph58%30.04 "HgN/A
8:30 PM81 °FPassing clouds.9 mph54%30.01 "HgN/A
8:00 PM81 °FPassing clouds.10 mph54%30.01 "HgN/A
7:30 PM84 °FPassing clouds.5 mph43%30.01 "HgN/A
7:00 PM84 °FPassing clouds.2 mph40%30.01 "HgN/A
6:30 PM86 °FPassing clouds.2 mph40%30.01 "HgN/A
6:00 PM86 °FPartly sunny.3 mph40%29.98 "HgN/A
5:30 PM86 °FPartly sunny.3 mph38%29.98 "HgN/A
5:00 PM86 °FPassing clouds.7 mph40%29.98 "HgN/A
4:00 PM84 °FPassing clouds.6 mph43%29.98 "HgN/A
3:30 PM84 °FPassing clouds.6 mph43%30.01 "HgN/A
3:00 PM84 °FSunny.3 mph43%30.01 "Hg10 mi
2:30 PM82 °FPassing clouds.7 mph45%30.01 "HgN/A
2:00 PM82 °FPassing clouds.8 mph45%30.01 "HgN/A
1:30 PM81 °FPassing clouds.7 mph51%30.04 "HgN/A
1:00 PM79 °FSunny.6 mph54%30.04 "Hg10 mi
12:30 PM77 °FPassing clouds.6 mph57%30.07 "HgN/A
12:00 PM75 °FPassing clouds.5 mph61%30.07 "HgN/A
11:30 AM73 °FSunny.5 mph65%30.07 "Hg10 mi
11:00 AM73 °FSunny.5 mph65%30.07 "Hg10 mi
10:30 AM70 °FPassing clouds.5 mph73%30.09 "HgN/A
10:00 AM70 °FPassing clouds.5 mph73%30.09 "HgN/A
9:30 AM68 °FSunny.5 mph78%30.07 "Hg10 mi
9:00 AM66 °FScattered clouds.5 mph83%30.07 "HgN/A
8:30 AM66 °FScattered clouds.5 mph78%30.07 "HgN/A
8:00 AM64 °FScattered clouds.3 mph83%30.07 "HgN/A
7:30 AM64 °FScattered clouds.5 mph83%30.07 "HgN/A
7:00 AM64 °FScattered clouds.2 mph83%30.07 "HgN/A
6:30 AM64 °FScattered clouds.5 mph88%30.07 "HgN/A
6:00 AM64 °FPassing clouds.6 mph83%30.07 "HgN/A
Weather by CustomWeather, © 2014

See weather overviewHow to use our weather pages